Time,TemperatureF,DewpointF,PressureIn,WindDirection,WindDirectionDegrees,WindSpeedMPH,WindSpeedGustMPH,Humidity,HourlyPrecipIn,Conditions,Clouds,dailyrainin,SoftwareType,DateUTC
2013-02-06 00:00:00,34.1,16.5,30.03,WSW,248,0.0,0.0,48,0.00,,,0.00,LWC V2.11 B50,2013-02-06 07:00:00,
2013-02-06 00:05:00,34.1,16.5,30.03,WSW,248,0.0,0.0,48,0.00,,,0.00,LWC V2.11 B50,2013-02-06 07:05:00,
2013-02-06 00:10:00,34.1,16.5,30.03,WSW,248,0.0,0.0,48,0.00,,,0.00,LWC V2.11 B50,2013-02-06 07:10:00,
2013-02-06 00:15:00,34.1,16.5,30.03,WSW,248,0.0,0.0,48,0.00,,,0.00,LWC V2.11 B50,2013-02-06 07:15:00,
2013-02-06 00:20:00,34.3,16.7,30.03,WSW,248,0.0,0.0,48,0.00,,,0.00,LWC V2.11 B50,2013-02-06 07:20:00,
2013-02-06 00:25:00,34.4,17.2,30.03,WSW,248,0.0,0.0,49,0.00,,,0.00,LWC V2.11 B50,2013-02-06 07:25:00,
2013-02-06 00:30:00,34.6,16.9,30.03,WSW,248,0.0,0.0,48,0.00,,,0.00,LWC V2.11 B50,2013-02-06 07:30:00,
2013-02-06 00:35:00,34.4,16.8,30.03,WSW,248,0.0,0.0,48,0.00,,,0.00,LWC V2.11 B50,2013-02-06 07:35:00,
2013-02-06 00:40:00,34.3,17.1,30.03,WSW,248,0.0,0.0,49,0.00,,,0.00,LWC V2.11 B50,2013-02-06 07:40:00,
2013-02-06 00:45:00,34.2,17.1,30.03,WSW,248,0.0,0.0,49,0.00,,,0.00,LWC V2.11 B50,2013-02-06 07:45:00,
2013-02-06 00:50:00,34.0,16.9,30.03,WSW,248,0.0,0.0,49,0.00,,,0.00,LWC V2.11 B50,2013-02-06 07:50:00,
2013-02-06 00:55:00,33.8,17.2,30.03,WSW,248,0.0,0.0,50,0.00,,,0.00,LWC V2.11 B50,2013-02-06 07:55:00,
2013-02-06 01:00:00,33.7,17.1,30.02,WSW,248,0.0,0.0,50,0.00,,,0.00,LWC V2.11 B50,2013-02-06 08:00:00,
2013-02-06 01:05:00,33.4,17.2,30.02,WSW,248,0.0,0.0,51,0.00,,,0.00,LWC V2.11 B50,2013-02-06 08:05:00,
2013-02-06 01:10:00,33.3,17.1,30.03,WSW,248,0.0,0.0,51,0.00,,,0.00,LWC V2.11 B50,2013-02-06 08:10:00,
2013-02-06 01:15:00,33.1,17.0,30.02,WSW,248,0.0,0.0,51,0.00,,,0.00,LWC V2.11 B50,2013-02-06 08:15:00,
2013-02-06 01:20:00,32.9,17.2,30.02,WSW,248,0.0,0.0,52,0.00,,,0.00,LWC V2.11 B50,2013-02-06 08:20:00,
2013-02-06 01:25:00,33.1,17.4,30.02,WSW,248,0.0,0.0,52,0.00,,,0.00,LWC V2.11 B50,2013-02-06 08:25:00,
2013-02-06 01:30:00,33.3,17.1,30.02,WSW,248,0.0,0.0,51,0.00,,,0.00,LWC V2.11 B50,2013-02-06 08:30:00,
2013-02-06 01:35:00,33.3,17.6,30.02,WSW,248,0.0,0.0,52,0.00,,,0.00,LWC V2.11 B50,2013-02-06 08:35:00,
2013-02-06 01:40:00,33.1,17.4,30.02,WSW,248,0.0,0.0,52,0.00,,,0.00,LWC V2.11 B50,2013-02-06 08:40:00,
2013-02-06 01:45:00,33.0,17.3,30.02,WSW,248,0.0,0.0,52,0.00,,,0.00,LWC V2.11 B50,2013-02-06 08:45:00,
2013-02-06 01:50:00,32.8,17.1,30.02,WSW,248,0.0,0.0,52,0.00,,,0.00,LWC V2.11 B50,2013-02-06 08:50:00,
2013-02-06 01:55:00,32.6,16.9,30.01,WSW,248,0.0,0.0,52,0.00,,,0.00,LWC V2.11 B50,2013-02-06 08:55:00,
2013-02-06 02:00:00,32.3,16.7,30.01,WSW,248,0.0,0.0,52,0.00,,,0.00,LWC V2.11 B50,2013-02-06 09:00:00,
2013-02-06 02:05:00,31.9,16.7,30.01,WSW,248,0.0,0.0,53,0.00,,,0.00,LWC V2.11 B50,2013-02-06 09:05:00,
2013-02-06 02:10:00,31.6,16.9,30.00,WSW,248,0.0,0.0,54,0.00,,,0.00,LWC V2.11 B50,2013-02-06 09:10:00,
2013-02-06 02:15:00,31.4,16.7,30.00,WSW,248,0.0,0.0,54,0.00,,,0.00,LWC V2.11 B50,2013-02-06 09:15:00,
2013-02-06 02:20:00,31.1,16.4,30.01,WSW,248,0.0,0.0,54,0.00,,,0.00,LWC V2.11 B50,2013-02-06 09:20:00,
2013-02-06 02:25:00,30.8,17.0,30.01,WSW,248,0.0,0.0,56,0.00,,,0.00,LWC V2.11 B50,2013-02-06 09:25:00,
2013-02-06 02:30:00,30.7,16.9,30.01,WSW,248,0.0,0.0,56,0.00,,,0.00,LWC V2.11 B50,2013-02-06 09:30:00,
2013-02-06 02:35:00,30.5,16.7,30.01,WSW,248,0.0,0.0,56,0.00,,,0.00,LWC V2.11 B50,2013-02-06 09:35:00,
2013-02-06 02:40:00,30.5,17.1,30.01,WSW,248,0.0,0.0,57,0.00,,,0.00,LWC V2.11 B50,2013-02-06 09:40:00,
2013-02-06 02:45:00,30.3,16.5,30.00,WSW,248,0.0,0.0,56,0.00,,,0.00,LWC V2.11 B50,2013-02-06 09:45:00,
2013-02-06 02:50:00,30.1,16.3,30.00,WSW,248,0.0,0.0,56,0.00,,,0.00,LWC V2.11 B50,2013-02-06 09:50:00,
2013-02-06 02:55:00,29.8,16.0,30.00,WSW,248,0.0,0.0,56,0.00,,,0.00,LWC V2.11 B50,2013-02-06 09:55:00,
2013-02-06 03:00:00,29.6,16.3,30.00,WSW,248,0.0,0.0,57,0.00,,,0.00,LWC V2.11 B50,2013-02-06 10:00:00,
2013-02-06 03:05:00,29.6,15.9,30.00,WSW,248,0.0,0.0,56,0.00,,,0.00,LWC V2.11 B50,2013-02-06 10:05:00,
2013-02-06 03:10:00,29.4,16.1,30.00,WSW,248,0.0,0.0,57,0.00,,,0.00,LWC V2.11 B50,2013-02-06 10:10:00,
2013-02-06 03:15:00,29.2,15.9,30.00,WSW,248,0.0,0.0,57,0.00,,,0.00,LWC V2.11 B50,2013-02-06 10:15:00,
2013-02-06 03:20:00,29.0,15.7,30.00,WSW,248,0.0,0.0,57,0.00,,,0.00,LWC V2.11 B50,2013-02-06 10:20:00,
2013-02-06 03:25:00,28.9,16.0,30.00,WSW,248,0.0,0.0,58,0.00,,,0.00,LWC V2.11 B50,2013-02-06 10:25:00,
2013-02-06 03:30:00,28.7,15.8,30.00,WSW,248,0.0,0.0,58,0.00,,,0.00,LWC V2.11 B50,2013-02-06 10:30:00,
2013-02-06 03:35:00,28.5,16.0,30.00,WSW,248,0.0,0.0,59,0.00,,,0.00,LWC V2.11 B50,2013-02-06 10:35:00,
2013-02-06 03:40:00,28.4,16.3,30.00,WSW,248,0.0,0.0,60,0.00,,,0.00,LWC V2.11 B50,2013-02-06 10:40:00,
2013-02-06 03:45:00,28.4,15.9,30.00,WSW,248,0.0,0.0,59,0.00,,,0.00,LWC V2.11 B50,2013-02-06 10:45:00,
2013-02-06 03:50:00,28.5,16.4,30.00,WSW,248,0.0,0.0,60,0.00,,,0.00,LWC V2.11 B50,2013-02-06 10:50:00,
2013-02-06 03:55:00,28.6,16.5,30.00,WSW,248,0.0,0.0,60,0.00,,,0.00,LWC V2.11 B50,2013-02-06 10:55:00,
2013-02-06 04:00:00,28.6,16.1,30.00,WSW,248,0.0,0.0,59,0.00,,,0.00,LWC V2.11 B50,2013-02-06 11:00:00,
2013-02-06 04:05:00,28.5,16.4,30.00,WSW,248,0.0,0.0,60,0.00,,,0.00,LWC V2.11 B50,2013-02-06 11:05:00,
2013-02-06 04:10:00,28.5,16.8,30.00,WSW,248,0.0,0.0,61,0.00,,,0.00,LWC V2.11 B50,2013-02-06 11:10:00,
2013-02-06 04:15:00,28.4,16.7,29.99,WSW,248,0.0,0.0,61,0.00,,,0.00,LWC V2.11 B50,2013-02-06 11:15:00,
2013-02-06 04:20:00,28.4,16.3,29.99,West,261,0.0,1.0,60,0.00,,,0.00,LWC V2.11 B50,2013-02-06 11:20:00,
2013-02-06 04:25:00,28.3,16.2,30.00,NW,312,0.0,3.0,60,0.00,,,0.00,LWC V2.11 B50,2013-02-06 11:25:00,
2013-02-06 04:30:00,28.9,17.2,30.00,WNW,292,0.0,3.0,61,0.00,,,0.00,LWC V2.11 B50,2013-02-06 11:30:00,
2013-02-06 04:35:00,29.9,17.7,29.99,NW,317,0.0,0.0,60,0.00,,,0.00,LWC V2.11 B50,2013-02-06 11:35:00,
2013-02-06 04:40:00,30.5,17.9,29.99,NW,317,0.0,0.0,59,0.00,,,0.00,LWC V2.11 B50,2013-02-06 11:40:00,
2013-02-06 04:45:00,30.8,17.8,29.99,NW,317,0.0,0.0,58,0.00,,,0.00,LWC V2.11 B50,2013-02-06 11:45:00,
2013-02-06 04:50:00,30.9,17.5,29.99,NW,317,0.0,0.0,57,0.00,,,0.00,LWC V2.11 B50,2013-02-06 11:50:00,
2013-02-06 04:55:00,30.8,17.4,29.99,NW,317,0.0,0.0,57,0.00,,,0.00,LWC V2.11 B50,2013-02-06 11:55:00,
2013-02-06 05:00:00,30.6,17.2,29.99,NW,317,0.0,0.0,57,0.00,,,0.00,LWC V2.11 B50,2013-02-06 12:00:00,
2013-02-06 05:05:00,30.2,16.8,29.98,NW,317,0.0,0.0,57,0.00,,,0.00,LWC V2.11 B50,2013-02-06 12:05:00,
2013-02-06 05:10:00,29.8,16.8,29.99,NW,317,0.0,0.0,58,0.00,,,0.00,LWC V2.11 B50,2013-02-06 12:10:00,
2013-02-06 05:15:00,29.4,16.5,29.99,NW,317,0.0,0.0,58,0.00,,,0.00,LWC V2.11 B50,2013-02-06 12:15:00,
2013-02-06 05:20:00,29.0,16.5,29.99,NW,317,0.0,0.0,59,0.00,,,0.00,LWC V2.11 B50,2013-02-06 12:20:00,
2013-02-06 05:25:00,28.7,16.2,29.98,NW,317,0.0,0.0,59,0.00,,,0.00,LWC V2.11 B50,2013-02-06 12:25:00,
2013-02-06 05:30:00,28.3,16.2,29.99,NW,317,0.0,0.0,60,0.00,,,0.00,LWC V2.11 B50,2013-02-06 12:30:00,
2013-02-06 05:35:00,28.0,15.9,29.99,NW,317,0.0,0.0,60,0.00,,,0.00,LWC V2.11 B50,2013-02-06 12:35:00,
2013-02-06 05:40:00,27.7,16.0,29.99,NW,317,0.0,0.0,61,0.00,,,0.00,LWC V2.11 B50,2013-02-06 12:40:00,
2013-02-06 05:45:00,27.5,16.2,29.99,NW,317,0.0,0.0,62,0.00,,,0.00,LWC V2.11 B50,2013-02-06 12:45:00,
2013-02-06 05:50:00,27.4,16.5,29.99,NW,317,0.0,0.0,63,0.00,,,0.00,LWC V2.11 B50,2013-02-06 12:50:00,
2013-02-06 05:55:00,27.2,16.7,29.99,NW,317,0.0,0.0,64,0.00,,,0.00,LWC V2.11 B50,2013-02-06 12:55:00,
2013-02-06 06:00:00,27.0,16.5,30.00,NW,317,0.0,0.0,64,0.00,,,0.00,LWC V2.11 B50,2013-02-06 13:00:00,
2013-02-06 06:05:00,26.9,16.7,29.99,NW,317,0.0,0.0,65,0.00,,,0.00,LWC V2.11 B50,2013-02-06 13:05:00,
2013-02-06 06:10:00,26.9,16.7,29.99,NW,317,0.0,0.0,65,0.00,,,0.00,LWC V2.11 B50,2013-02-06 13:10:00,
2013-02-06 06:15:00,26.9,16.7,29.99,NW,317,0.0,1.0,65,0.00,,,0.00,LWC V2.11 B50,2013-02-06 13:15:00,
2013-02-06 06:20:00,27.0,16.8,30.00,NW,317,0.0,0.0,65,0.00,,,0.00,LWC V2.11 B50,2013-02-06 13:20:00,
2013-02-06 06:25:00,27.1,16.9,29.99,NW,317,0.0,0.0,65,0.00,,,0.00,LWC V2.11 B50,2013-02-06 13:25:00,
2013-02-06 06:30:00,27.1,16.6,30.00,NW,317,0.0,0.0,64,0.00,,,0.00,LWC V2.11 B50,2013-02-06 13:30:00,
2013-02-06 06:35:00,27.1,16.6,30.00,NW,317,0.0,0.0,64,0.00,,,0.00,LWC V2.11 B50,2013-02-06 13:35:00,
2013-02-06 06:40:00,27.0,16.8,30.00,NW,317,0.0,0.0,65,0.00,,,0.00,LWC V2.11 B50,2013-02-06 13:40:00,
2013-02-06 06:45:00,26.8,16.6,30.00,NW,317,0.0,0.0,65,0.00,,,0.00,LWC V2.11 B50,2013-02-06 13:45:00,
2013-02-06 06:50:00,26.6,16.8,30.01,NW,317,0.0,0.0,66,0.00,,,0.00,LWC V2.11 B50,2013-02-06 13:50:00,
2013-02-06 06:55:00,26.5,16.7,30.01,NW,317,0.0,0.0,66,0.00,,,0.00,LWC V2.11 B50,2013-02-06 13:55:00,
2013-02-06 07:00:00,26.5,17.0,30.01,NW,317,0.0,0.0,67,0.00,,,0.00,LWC V2.11 B50,2013-02-06 14:00:00,
2013-02-06 07:05:00,26.6,16.8,30.01,NW,317,0.0,0.0,66,0.00,,,0.00,LWC V2.11 B50,2013-02-06 14:05:00,
2013-02-06 07:10:00,26.5,16.7,30.01,NW,317,0.0,0.0,66,0.00,,,0.00,LWC V2.11 B50,2013-02-06 14:10:00,
2013-02-06 07:15:00,26.5,16.7,30.02,NW,317,0.0,0.0,66,0.00,,,0.00,LWC V2.11 B50,2013-02-06 14:15:00,
2013-02-06 07:20:00,26.5,16.7,30.02,NW,317,0.0,0.0,66,0.00,,,0.00,LWC V2.11 B50,2013-02-06 14:20:00,
2013-02-06 07:25:00,26.7,16.9,30.02,NW,317,0.0,0.0,66,0.00,,,0.00,LWC V2.11 B50,2013-02-06 14:25:00,
2013-02-06 07:30:00,27.1,16.9,30.02,NW,317,0.0,0.0,65,0.00,,,0.00,LWC V2.11 B50,2013-02-06 14:30:00,
2013-02-06 07:35:00,27.7,17.5,30.02,NW,317,0.0,0.0,65,0.00,,,0.00,LWC V2.11 B50,2013-02-06 14:35:00,
2013-02-06 07:40:00,28.1,17.5,30.02,NW,317,0.0,0.0,64,0.00,,,0.00,LWC V2.11 B50,2013-02-06 14:40:00,
2013-02-06 07:45:00,28.5,17.9,30.02,NW,317,0.0,0.0,64,0.00,,,0.00,LWC V2.11 B50,2013-02-06 14:45:00,
2013-02-06 07:50:00,29.1,18.1,30.02,NW,317,0.0,0.0,63,0.00,,,0.00,LWC V2.11 B50,2013-02-06 14:50:00,
2013-02-06 07:55:00,29.7,18.7,30.02,NW,317,0.0,0.0,63,0.00,,,0.00,LWC V2.11 B50,2013-02-06 14:55:00,
2013-02-06 08:00:00,30.3,19.2,30.02,NW,317,0.0,0.0,63,0.00,,,0.00,LWC V2.11 B50,2013-02-06 15:00:00,
2013-02-06 08:05:00,30.7,19.2,30.03,NW,317,0.0,0.0,62,0.00,,,0.00,LWC V2.11 B50,2013-02-06 15:05:00,
2013-02-06 08:11:00,31.3,19.4,30.03,NW,317,0.0,0.0,61,0.00,,,0.00,LWC V2.11 B50,2013-02-06 15:11:00,
2013-02-06 08:16:00,32.1,19.8,30.03,NW,317,0.0,0.0,60,0.00,,,0.00,LWC V2.11 B50,2013-02-06 15:16:00,
2013-02-06 08:21:00,33.0,19.9,30.03,NW,317,0.0,0.0,58,0.00,,,0.00,LWC V2.11 B50,2013-02-06 15:21:00,
2013-02-06 08:26:00,33.9,20.3,30.03,SW,223,0.0,0.0,57,0.00,,,0.00,LWC V2.11 B50,2013-02-06 15:26:00,
2013-02-06 08:31:00,34.6,20.5,30.03,SSW,209,0.0,0.0,56,0.00,,,0.00,LWC V2.11 B50,2013-02-06 15:31:00,
2013-02-06 08:36:00,35.3,20.3,30.03,SSW,209,0.0,0.0,54,0.00,,,0.00,LWC V2.11 B50,2013-02-06 15:36:00,
2013-02-06 08:41:00,35.9,20.9,30.03,SSW,207,0.0,1.0,54,0.00,,,0.00,LWC V2.11 B50,2013-02-06 15:41:00,
2013-02-06 08:46:00,36.6,20.7,30.03,SSW,205,0.0,1.0,52,0.00,,,0.00,LWC V2.11 B50,2013-02-06 15:46:00,
2013-02-06 08:51:00,36.9,20.9,30.04,SSW,205,0.0,1.0,52,0.00,,,0.00,LWC V2.11 B50,2013-02-06 15:51:00,
2013-02-06 08:56:00,37.4,20.9,30.04,SSW,205,0.0,0.0,51,0.00,,,0.00,LWC V2.11 B50,2013-02-06 15:56:00,
2013-02-06 09:01:00,38.2,21.7,30.03,SSW,205,0.0,0.0,51,0.00,,,0.00,LWC V2.11 B50,2013-02-06 16:01:00,
2013-02-06 09:06:00,39.3,21.8,30.03,SSW,205,0.0,0.0,49,0.00,,,0.00,LWC V2.11 B50,2013-02-06 16:06:00,
2013-02-06 09:11:00,40.2,21.6,30.03,SSW,205,0.0,0.0,47,0.00,,,0.00,LWC V2.11 B50,2013-02-06 16:11:00,
2013-02-06 09:16:00,41.2,22.0,30.03,SSW,205,0.0,0.0,46,0.00,,,0.00,LWC V2.11 B50,2013-02-06 16:16:00,
2013-02-06 09:21:00,42.0,22.2,30.03,SSW,198,0.0,1.0,45,0.00,,,0.00,LWC V2.11 B50,2013-02-06 16:21:00,
2013-02-06 09:26:00,42.8,21.9,30.03,SSE,158,0.0,1.0,43,0.00,,,0.00,LWC V2.11 B50,2013-02-06 16:26:00,
2013-02-06 09:31:00,43.6,22.0,30.03,SE,131,0.0,0.0,42,0.00,,,0.00,LWC V2.11 B50,2013-02-06 16:31:00,
2013-02-06 09:36:00,44.3,22.1,30.03,SE,131,0.0,0.0,41,0.00,,,0.00,LWC V2.11 B50,2013-02-06 16:36:00,
2013-02-06 09:41:00,45.0,21.5,30.03,SE,130,0.0,1.0,39,0.00,,,0.00,LWC V2.11 B50,2013-02-06 16:41:00,
2013-02-06 09:46:00,45.3,21.8,30.03,SE,128,0.0,0.0,39,0.00,,,0.00,LWC V2.11 B50,2013-02-06 16:46:00,
2013-02-06 09:51:00,45.7,21.6,30.04,SSW,192,1.0,1.0,38,0.00,,,0.00,LWC V2.11 B50,2013-02-06 16:51:00,
2013-02-06 09:56:00,46.2,22.0,30.04,South,178,0.0,3.0,38,0.00,,,0.00,LWC V2.11 B50,2013-02-06 16:56:00,
2013-02-06 10:01:00,46.5,21.6,30.04,SE,136,0.0,1.0,37,0.00,,,0.00,LWC V2.11 B50,2013-02-06 17:01:00,
2013-02-06 10:06:00,47.0,21.4,30.03,South,178,1.0,2.0,36,0.00,,,0.00,LWC V2.11 B50,2013-02-06 17:06:00,
2013-02-06 10:11:00,47.0,20.8,30.03,East,96,0.0,2.0,35,0.00,,,0.00,LWC V2.11 B50,2013-02-06 17:11:00,
2013-02-06 10:16:00,47.3,21.7,30.03,SSE,151,2.0,2.0,36,0.00,,,0.00,LWC V2.11 B50,2013-02-06 17:16:00,
2013-02-06 10:21:00,47.8,21.5,30.03,ESE,120,0.0,2.0,35,0.00,,,0.00,LWC V2.11 B50,2013-02-06 17:21:00,
2013-02-06 10:26:00,48.3,21.3,30.03,SE,128,0.0,3.0,34,0.00,,,0.00,LWC V2.11 B50,2013-02-06 17:26:00,
2013-02-06 10:31:00,49.0,21.9,30.03,ESE,122,1.0,2.0,34,0.00,,,0.00,LWC V2.11 B50,2013-02-06 17:31:00,
2013-02-06 10:36:00,49.6,21.7,30.02,SE,142,0.0,2.0,33,0.00,,,0.00,LWC V2.11 B50,2013-02-06 17:36:00,
2013-02-06 10:41:00,49.9,22.0,30.02,SE,136,0.0,3.0,33,0.00,,,0.00,LWC V2.11 B50,2013-02-06 17:41:00,
2013-02-06 10:46:00,49.9,21.2,30.02,SE,124,0.0,1.0,32,0.00,,,0.00,LWC V2.11 B50,2013-02-06 17:46:00,
2013-02-06 10:51:00,50.0,21.3,30.02,SE,127,1.0,3.0,32,0.00,,,0.00,LWC V2.11 B50,2013-02-06 17:51:00,
2013-02-06 10:56:00,50.4,21.7,30.01,SSE,160,1.0,3.0,32,0.00,,,0.00,LWC V2.11 B50,2013-02-06 17:56:00,
2013-02-06 11:01:00,51.0,22.2,30.02,SSW,201,1.0,2.0,32,0.00,,,0.00,LWC V2.11 B50,2013-02-06 18:01:00,
2013-02-06 11:06:00,51.3,21.7,30.01,SSE,167,6.0,6.0,31,0.00,,,0.00,LWC V2.11 B50,2013-02-06 18:06:00,
2013-02-06 11:11:00,51.2,21.6,30.01,South,183,0.0,4.0,31,0.00,,,0.00,LWC V2.11 B50,2013-02-06 18:11:00,
2013-02-06 11:16:00,51.2,20.8,30.01,SSE,153,0.0,5.0,30,0.00,,,0.00,LWC V2.11 B50,2013-02-06 18:16:00,
2013-02-06 11:21:00,51.4,21.8,30.01,SE,125,0.0,4.0,31,0.00,,,0.00,LWC V2.11 B50,2013-02-06 18:21:00,
2013-02-06 11:26:00,51.8,21.4,30.01,SE,138,3.0,3.0,30,0.00,,,0.00,LWC V2.11 B50,2013-02-06 18:26:00,
2013-02-06 11:31:00,52.1,21.6,30.01,SSE,167,1.0,4.0,30,0.00,,,0.00,LWC V2.11 B50,2013-02-06 18:31:00,
2013-02-06 11:36:00,52.3,21.8,30.00,SE,142,8.0,8.0,30,0.00,,,0.00,LWC V2.11 B50,2013-02-06 18:36:00,
2013-02-06 11:41:00,52.7,22.9,30.00,SSW,194,2.0,3.0,31,0.00,,,0.00,LWC V2.11 B50,2013-02-06 18:41:00,
2013-02-06 11:46:00,53.4,22.8,30.00,South,188,0.0,1.0,30,0.00,,,0.00,LWC V2.11 B50,2013-02-06 18:46:00,
2013-02-06 11:51:00,54.2,22.6,29.99,ENE,75,1.0,3.0,29,0.00,,,0.00,LWC V2.11 B50,2013-02-06 18:51:00,
2013-02-06 11:56:00,54.5,22.9,29.99,South,179,2.0,2.0,29,0.00,,,0.00,LWC V2.11 B50,2013-02-06 18:56:00,
2013-02-06 12:01:00,54.8,23.2,29.99,South,178,1.0,1.0,29,0.00,,,0.00,LWC V2.11 B50,2013-02-06 19:01:00,
2013-02-06 12:05:00,55.0,23.3,29.98,SSE,150,3.0,7.0,29,0.00,,,0.00,LWC V2.11 B50,2013-02-06 19:05:00,
2013-02-06 12:06:00,55.0,23.3,29.98,SE,144,0.0,5.0,29,0.00,,,0.00,LWC V2.11 B50,2013-02-06 19:06:00,
2013-02-06 12:11:00,55.1,23.4,29.98,SE,144,1.0,3.0,29,0.00,,,0.00,LWC V2.11 B50,2013-02-06 19:11:00,
2013-02-06 12:12:00,55.2,23.5,29.98,SW,219,0.0,4.0,29,0.00,,,0.00,LWC V2.11 B50,2013-02-06 19:12:00,
2013-02-06 12:17:00,55.9,23.3,29.97,SE,140,0.0,2.0,28,0.00,,,0.00,LWC V2.11 B50,2013-02-06 19:17:00,
2013-02-06 12:22:00,56.6,23.9,29.96,South,190,1.0,3.0,28,0.00,,,0.00,LWC V2.11 B50,2013-02-06 19:22:00,
2013-02-06 12:27:00,57.3,24.5,29.95,East,94,2.0,5.0,28,0.00,,,0.00,LWC V2.11 B50,2013-02-06 19:27:00,
2013-02-06 12:32:00,57.8,24.9,29.95,East,91,3.0,5.0,28,0.00,,,0.00,LWC V2.11 B50,2013-02-06 19:32:00,
2013-02-06 12:37:00,58.1,24.3,29.95,SE,139,5.0,6.0,27,0.00,,,0.00,LWC V2.11 B50,2013-02-06 19:37:00,
2013-02-06 12:42:00,58.3,25.3,29.94,South,189,3.0,4.0,28,0.00,,,0.00,LWC V2.11 B50,2013-02-06 19:42:00,
2013-02-06 12:47:00,58.6,25.6,29.94,South,191,0.0,4.0,28,0.00,,,0.00,LWC V2.11 B50,2013-02-06 19:47:00,
2013-02-06 12:52:00,59.1,26.0,29.94,SSW,202,0.0,2.0,28,0.00,,,0.00,LWC V2.11 B50,2013-02-06 19:52:00,
2013-02-06 12:57:00,59.7,26.5,29.93,South,183,3.0,4.0,28,0.00,,,0.00,LWC V2.11 B50,2013-02-06 19:57:00,
2013-02-06 13:02:00,60.0,25.9,29.93,SSE,158,2.0,3.0,27,0.00,,,0.00,LWC V2.11 B50,2013-02-06 20:02:00,
2013-02-06 13:07:00,60.2,27.0,29.93,SSE,152,0.0,5.0,28,0.00,,,0.00,LWC V2.11 B50,2013-02-06 20:07:00,
2013-02-06 13:12:00,60.4,27.1,29.92,South,174,1.0,4.0,28,0.00,,,0.00,LWC V2.11 B50,2013-02-06 20:12:00,
2013-02-06 13:17:00,60.7,27.4,29.93,SSE,161,0.0,1.0,28,0.00,,,0.00,LWC V2.11 B50,2013-02-06 20:17:00,
2013-02-06 13:22:00,61.3,28.8,29.92,SSW,210,0.0,4.0,29,0.00,,,0.00,LWC V2.11 B50,2013-02-06 20:22:00,
2013-02-06 13:27:00,61.4,28.9,29.92,WNW,285,0.0,1.0,29,0.00,,,0.00,LWC V2.11 B50,2013-02-06 20:27:00,
2013-02-06 13:32:00,61.2,28.7,29.92,WNW,282,0.0,4.0,29,0.00,,,0.00,LWC V2.11 B50,2013-02-06 20:32:00,
2013-02-06 13:37:00,60.1,28.6,29.91,WNW,290,1.0,2.0,30,0.00,,,0.00,LWC V2.11 B50,2013-02-06 20:37:00,
2013-02-06 13:42:00,59.8,28.3,29.91,NW,323,2.0,9.0,30,0.00,,,0.00,LWC V2.11 B50,2013-02-06 20:42:00,
2013-02-06 13:47:00,60.4,28.8,29.91,North,5,0.0,0.0,30,0.00,,,0.00,LWC V2.11 B50,2013-02-06 20:47:00,
2013-02-06 13:52:00,61.2,28.7,29.90,WNW,295,1.0,8.0,29,0.00,,,0.00,LWC V2.11 B50,2013-02-06 20:52:00,
2013-02-06 13:57:00,61.3,28.8,29.90,NW,320,2.0,6.0,29,0.00,,,0.00,LWC V2.11 B50,2013-02-06 20:57:00,
2013-02-06 14:02:00,61.1,27.8,29.90,West,275,1.0,3.0,28,0.00,,,0.00,LWC V2.11 B50,2013-02-06 21:02:00,
2013-02-06 14:07:00,61.3,27.0,29.90,WNW,297,0.0,5.0,27,0.00,,,0.00,LWC V2.11 B50,2013-02-06 21:07:00,
2013-02-06 14:11:00,61.4,27.1,29.89,North,350,3.0,5.0,27,0.00,,,0.00,LWC V2.11 B50,2013-02-06 21:11:00,
2013-02-06 14:16:00,62.0,27.6,29.89,WNW,290,2.0,8.0,27,0.00,,,0.00,LWC V2.11 B50,2013-02-06 21:16:00,
2013-02-06 14:21:00,62.9,28.4,29.89,West,267,0.0,4.0,27,0.00,,,0.00,LWC V2.11 B50,2013-02-06 21:21:00,
2013-02-06 14:26:00,63.6,28.1,29.89,WNW,290,1.0,5.0,26,0.00,,,0.00,LWC V2.11 B50,2013-02-06 21:26:00,
2013-02-06 14:31:00,62.8,27.4,29.89,West,277,4.0,10.0,26,0.00,,,0.00,LWC V2.11 B50,2013-02-06 21:31:00,
2013-02-06 14:36:00,62.4,28.0,29.89,West,259,0.0,0.0,27,0.00,,,0.00,LWC V2.11 B50,2013-02-06 21:36:00,
2013-02-06 14:41:00,62.7,27.3,29.89,SSW,196,0.0,1.0,26,0.00,,,0.00,LWC V2.11 B50,2013-02-06 21:41:00,
2013-02-06 14:46:00,62.8,27.4,29.89,SSW,204,1.0,3.0,26,0.00,,,0.00,LWC V2.11 B50,2013-02-06 21:46:00,
2013-02-06 14:51:00,62.2,27.8,29.88,WSW,248,0.0,3.0,27,0.00,,,0.00,LWC V2.11 B50,2013-02-06 21:51:00,
2013-02-06 14:56:00,62.1,27.7,29.88,WNW,282,8.0,8.0,27,0.00,,,0.00,LWC V2.11 B50,2013-02-06 21:56:00,
2013-02-06 15:01:00,61.8,27.5,29.89,West,275,2.0,7.0,27,0.00,,,0.00,LWC V2.11 B50,2013-02-06 22:01:00,
2013-02-06 15:06:00,61.8,27.5,29.89,WNW,294,4.0,7.0,27,0.00,,,0.00,LWC V2.11 B50,2013-02-06 22:06:00,
2013-02-06 15:11:00,61.9,27.6,29.89,WNW,284,0.0,4.0,27,0.00,,,0.00,LWC V2.11 B50,2013-02-06 22:11:00,
2013-02-06 15:16:00,61.6,27.3,29.89,West,267,2.0,5.0,27,0.00,,,0.00,LWC V2.11 B50,2013-02-06 22:16:00,
2013-02-06 15:21:00,61.4,27.1,29.89,WSW,250,1.0,3.0,27,0.00,,,0.00,LWC V2.11 B50,2013-02-06 22:21:00,
2013-02-06 15:26:00,61.4,27.1,29.89,West,281,0.0,3.0,27,0.00,,,0.00,LWC V2.11 B50,2013-02-06 22:26:00,
2013-02-06 15:31:00,61.1,27.8,29.89,WNW,290,1.0,4.0,28,0.00,,,0.00,LWC V2.11 B50,2013-02-06 22:31:00,
2013-02-06 15:36:00,61.1,27.8,29.89,SSW,198,1.0,5.0,28,0.00,,,0.00,LWC V2.11 B50,2013-02-06 22:36:00,
2013-02-06 15:41:00,60.9,27.6,29.89,West,281,0.0,4.0,28,0.00,,,0.00,LWC V2.11 B50,2013-02-06 22:41:00,
2013-02-06 15:46:00,60.5,28.1,29.89,SW,216,1.0,8.0,29,0.00,,,0.00,LWC V2.11 B50,2013-02-06 22:46:00,
2013-02-06 15:51:00,60.1,27.7,29.89,West,279,0.0,2.0,29,0.00,,,0.00,LWC V2.11 B50,2013-02-06 22:51:00,
2013-02-06 15:56:00,59.9,28.4,29.89,West,259,0.0,2.0,30,0.00,,,0.00,LWC V2.11 B50,2013-02-06 22:56:00,
2013-02-06 16:01:00,59.8,28.3,29.89,SSW,208,0.0,5.0,30,0.00,,,0.00,LWC V2.11 B50,2013-02-06 23:01:00,
2013-02-06 16:06:00,59.7,28.2,29.89,SSW,213,0.0,2.0,30,0.00,,,0.00,LWC V2.11 B50,2013-02-06 23:06:00,
2013-02-06 16:11:00,59.6,28.9,29.89,West,266,2.0,4.0,31,0.00,,,0.00,LWC V2.11 B50,2013-02-06 23:11:00,
2013-02-06 16:16:00,59.6,28.9,29.89,West,279,0.0,2.0,31,0.00,,,0.00,LWC V2.11 B50,2013-02-06 23:16:00,
2013-02-06 16:21:00,59.5,28.8,29.89,West,269,1.0,4.0,31,0.00,,,0.00,LWC V2.11 B50,2013-02-06 23:21:00,
2013-02-06 16:26:00,59.4,28.8,29.89,SW,225,0.0,4.0,31,0.00,,,0.00,LWC V2.11 B50,2013-02-06 23:26:00,
2013-02-06 16:31:00,59.4,28.8,29.89,WSW,239,0.0,1.0,31,0.00,,,0.00,LWC V2.11 B50,2013-02-06 23:31:00,
2013-02-06 16:36:00,59.4,28.0,29.89,NW,311,4.0,4.0,30,0.00,,,0.00,LWC V2.11 B50,2013-02-06 23:36:00,
2013-02-06 16:41:00,59.3,27.9,29.89,West,273,1.0,4.0,30,0.00,,,0.00,LWC V2.11 B50,2013-02-06 23:41:00,
2013-02-06 16:46:00,59.2,28.6,29.89,West,277,2.0,5.0,31,0.00,,,0.00,LWC V2.11 B50,2013-02-06 23:46:00,
2013-02-06 16:51:00,59.1,27.7,29.89,WNW,288,0.0,3.0,30,0.00,,,0.00,LWC V2.11 B50,2013-02-06 23:51:00,
2013-02-06 16:52:00,59.1,27.7,29.90,WNW,292,4.0,4.0,30,0.00,,,0.00,LWC V2.11 B50,2013-02-06 23:52:00,
2013-02-06 16:57:00,59.0,27.6,29.89,SSW,208,0.0,1.0,30,0.00,,,0.00,LWC V2.11 B50,2013-02-06 23:57:00,
2013-02-06 17:02:00,58.9,27.5,29.90,NW,319,1.0,4.0,30,0.00,,,0.00,LWC V2.11 B50,2013-02-07 00:02:00,
2013-02-06 17:07:00,58.9,26.7,29.90,NNW,340,3.0,7.0,29,0.00,,,0.00,LWC V2.11 B50,2013-02-07 00:07:00,
2013-02-06 17:12:00,58.7,24.8,29.90,NW,320,1.0,2.0,27,0.00,,,0.00,LWC V2.11 B50,2013-02-07 00:12:00,
2013-02-06 17:17:00,58.5,24.6,29.90,NNE,28,1.0,5.0,27,0.00,,,0.00,LWC V2.11 B50,2013-02-07 00:17:00,
2013-02-06 17:22:00,58.1,24.3,29.91,NW,318,6.0,7.0,27,0.00,,,0.00,LWC V2.11 B50,2013-02-07 00:22:00,
2013-02-06 17:27:00,57.8,24.0,29.91,NW,318,1.0,7.0,27,0.00,,,0.00,LWC V2.11 B50,2013-02-07 00:27:00,
2013-02-06 17:32:00,57.6,23.9,29.91,NNW,329,0.0,6.0,27,0.00,,,0.00,LWC V2.11 B50,2013-02-07 00:32:00,
2013-02-06 17:37:00,57.3,23.6,29.91,NW,318,3.0,4.0,27,0.00,,,0.00,LWC V2.11 B50,2013-02-07 00:37:00,
2013-02-06 17:42:00,57.0,23.4,29.92,NW,317,3.0,4.0,27,0.00,,,0.00,LWC V2.11 B50,2013-02-07 00:42:00,
2013-02-06 17:47:00,56.7,24.0,29.92,NW,321,6.0,6.0,28,0.00,,,0.00,LWC V2.11 B50,2013-02-07 00:47:00,
2013-02-06 17:52:00,56.3,23.6,29.92,NW,314,4.0,5.0,28,0.00,,,0.00,LWC V2.11 B50,2013-02-07 00:52:00,
2013-02-06 17:57:00,55.9,23.3,29.92,NW,321,2.0,5.0,28,0.00,,,0.00,LWC V2.11 B50,2013-02-07 00:57:00,
2013-02-06 18:02:00,55.5,23.8,29.93,WNW,298,2.0,4.0,29,0.00,,,0.00,LWC V2.11 B50,2013-02-07 01:02:00,
2013-02-06 18:07:00,55.1,23.4,29.93,WNW,297,5.0,5.0,29,0.00,,,0.00,LWC V2.11 B50,2013-02-07 01:07:00,
2013-02-06 18:12:00,54.6,23.0,29.93,WNW,289,0.0,4.0,29,0.00,,,0.00,LWC V2.11 B50,2013-02-07 01:12:00,
2013-02-06 18:17:00,54.1,23.4,29.94,WNW,296,3.0,6.0,30,0.00,,,0.00,LWC V2.11 B50,2013-02-07 01:17:00,
2013-02-06 18:22:00,53.7,23.0,29.94,NW,313,2.0,8.0,30,0.00,,,0.00,LWC V2.11 B50,2013-02-07 01:22:00,
2013-02-06 18:27:00,53.9,23.2,29.94,NNW,338,5.0,10.0,30,0.00,,,0.00,LWC V2.11 B50,2013-02-07 01:27:00,
2013-02-06 18:32:00,54.2,23.5,29.94,NW,317,2.0,7.0,30,0.00,,,0.00,LWC V2.11 B50,2013-02-07 01:32:00,
2013-02-06 18:37:00,54.3,23.5,29.94,WNW,296,3.0,6.0,30,0.00,,,0.00,LWC V2.11 B50,2013-02-07 01:37:00,
2013-02-06 18:42:00,54.2,23.5,29.95,NW,322,1.0,7.0,30,0.00,,,0.00,LWC V2.11 B50,2013-02-07 01:42:00,
2013-02-06 18:47:00,53.9,23.2,29.95,WNW,295,4.0,5.0,30,0.00,,,0.00,LWC V2.11 B50,2013-02-07 01:47:00,
2013-02-06 18:52:00,53.3,23.4,29.95,NW,308,1.0,5.0,31,0.00,,,0.00,LWC V2.11 B50,2013-02-07 01:52:00,
2013-02-06 18:57:00,52.6,22.8,29.95,NW,310,3.0,4.0,31,0.00,,,0.00,LWC V2.11 B50,2013-02-07 01:57:00,
2013-02-06 19:02:00,51.9,23.0,29.95,NW,315,3.0,4.0,32,0.00,,,0.00,LWC V2.11 B50,2013-02-07 02:02:00,
2013-02-06 19:07:00,51.2,23.1,29.95,WNW,288,3.0,4.0,33,0.00,,,0.00,LWC V2.11 B50,2013-02-07 02:07:00,
2013-02-06 19:12:00,50.6,23.3,29.95,NW,326,2.0,5.0,34,0.00,,,0.00,LWC V2.11 B50,2013-02-07 02:12:00,
2013-02-06 19:17:00,50.1,22.8,29.96,NW,319,2.0,5.0,34,0.00,,,0.00,LWC V2.11 B50,2013-02-07 02:17:00,
2013-02-06 19:22:00,49.6,23.1,29.96,NW,321,2.0,3.0,35,0.00,,,0.00,LWC V2.11 B50,2013-02-07 02:22:00,
2013-02-06 19:27:00,49.1,22.6,29.96,NW,304,2.0,4.0,35,0.00,,,0.00,LWC V2.11 B50,2013-02-07 02:27:00,
2013-02-06 19:32:00,49.0,23.2,29.96,NNW,348,4.0,5.0,36,0.00,,,0.00,LWC V2.11 B50,2013-02-07 02:32:00,
2013-02-06 19:37:00,49.0,23.2,29.96,NW,306,4.0,5.0,36,0.00,,,0.00,LWC V2.11 B50,2013-02-07 02:37:00,
2013-02-06 19:42:00,48.9,23.1,29.96,NW,304,3.0,6.0,36,0.00,,,0.00,LWC V2.11 B50,2013-02-07 02:42:00,
2013-02-06 19:47:00,48.8,23.7,29.97,NW,309,5.0,6.0,37,0.00,,,0.00,LWC V2.11 B50,2013-02-07 02:47:00,
2013-02-06 19:52:00,48.7,23.6,29.97,NW,316,3.0,8.0,37,0.00,,,0.00,LWC V2.11 B50,2013-02-07 02:52:00,
2013-02-06 19:57:00,48.7,23.0,29.97,NW,306,3.0,8.0,36,0.00,,,0.00,LWC V2.11 B50,2013-02-07 02:57:00,
2013-02-06 20:02:00,48.5,22.8,29.97,NW,304,4.0,9.0,36,0.00,,,0.00,LWC V2.11 B50,2013-02-07 03:02:00,
2013-02-06 20:07:00,48.1,23.1,29.97,NW,306,6.0,8.0,37,0.00,,,0.00,LWC V2.11 B50,2013-02-07 03:07:00,
2013-02-06 20:12:00,47.9,23.5,29.98,WNW,294,3.0,7.0,38,0.00,,,0.00,LWC V2.11 B50,2013-02-07 03:12:00,
2013-02-06 20:17:00,47.9,23.5,29.98,NW,316,5.0,6.0,38,0.00,,,0.00,LWC V2.11 B50,2013-02-07 03:17:00,
2013-02-06 20:22:00,48.1,24.3,29.98,WNW,297,4.0,7.0,39,0.00,,,0.00,LWC V2.11 B50,2013-02-07 03:22:00,
2013-02-06 20:27:00,48.2,24.4,29.98,NNW,328,1.0,5.0,39,0.00,,,0.00,LWC V2.11 B50,2013-02-07 03:27:00,
2013-02-06 20:32:00,48.1,24.3,29.99,NW,315,2.0,9.0,39,0.00,,,0.00,LWC V2.11 B50,2013-02-07 03:32:00,
2013-02-06 20:37:00,48.1,24.3,29.99,NW,311,0.0,3.0,39,0.00,,,0.00,LWC V2.11 B50,2013-02-07 03:37:00,
2013-02-06 20:42:00,48.0,24.2,30.00,NNW,327,2.0,6.0,39,0.00,,,0.00,LWC V2.11 B50,2013-02-07 03:42:00,
2013-02-06 20:47:00,48.3,24.5,30.00,NW,304,1.0,4.0,39,0.00,,,0.00,LWC V2.11 B50,2013-02-07 03:47:00,
2013-02-06 20:52:00,48.4,24.0,30.00,North,11,1.0,6.0,38,0.00,,,0.00,LWC V2.11 B50,2013-02-07 03:52:00,
2013-02-06 20:57:00,48.4,24.6,30.00,NW,321,2.0,4.0,39,0.00,,,0.00,LWC V2.11 B50,2013-02-07 03:57:00,
2013-02-06 21:02:00,48.2,24.4,30.00,NW,315,3.0,5.0,39,0.00,,,0.00,LWC V2.11 B50,2013-02-07 04:02:00,
2013-02-06 21:07:00,47.9,24.1,30.00,WNW,302,2.0,7.0,39,0.00,,,0.00,LWC V2.11 B50,2013-02-07 04:07:00,
2013-02-06 21:12:00,47.7,24.6,30.00,NW,311,3.0,5.0,40,0.00,,,0.00,LWC V2.11 B50,2013-02-07 04:12:00,
2013-02-06 21:17:00,47.4,24.3,30.00,NW,309,5.0,8.0,40,0.00,,,0.00,LWC V2.11 B50,2013-02-07 04:17:00,
2013-02-06 21:22:00,47.1,24.0,30.00,WNW,301,4.0,7.0,40,0.00,,,0.00,LWC V2.11 B50,2013-02-07 04:22:00,
2013-02-06 21:27:00,46.5,24.1,30.00,NW,309,6.0,9.0,41,0.00,,,0.00,LWC V2.11 B50,2013-02-07 04:27:00,
2013-02-06 21:32:00,45.8,24.0,30.00,WNW,300,5.0,7.0,42,0.00,,,0.00,LWC V2.11 B50,2013-02-07 04:32:00,
2013-02-06 21:37:00,45.5,24.3,30.00,WNW,298,4.0,7.0,43,0.00,,,0.00,LWC V2.11 B50,2013-02-07 04:37:00,
2013-02-06 21:42:00,45.5,24.3,30.00,WNW,302,2.0,6.0,43,0.00,,,0.00,LWC V2.11 B50,2013-02-07 04:42:00,
2013-02-06 21:47:00,45.4,24.2,30.00,NW,317,3.0,7.0,43,0.00,,,0.00,LWC V2.11 B50,2013-02-07 04:47:00,
2013-02-06 21:52:00,45.1,24.5,30.00,NW,325,6.0,8.0,44,0.00,,,0.00,LWC V2.11 B50,2013-02-07 04:52:00,
2013-02-06 21:57:00,44.9,24.3,30.00,West,281,2.0,7.0,44,0.00,,,0.00,LWC V2.11 B50,2013-02-07 04:57:00,
2013-02-06 22:00:00,44.9,24.9,30.00,WNW,286,10.0,10.0,45,0.00,,,0.00,LWC V2.11 B50,2013-02-07 05:00:00,
2013-02-06 22:05:00,45.4,24.8,30.00,NW,317,6.0,12.0,44,0.00,,,0.00,LWC V2.11 B50,2013-02-07 05:05:00,
2013-02-06 22:10:00,45.7,25.0,30.00,WNW,301,3.0,10.0,44,0.00,,,0.00,LWC V2.11 B50,2013-02-07 05:10:00,
2013-02-06 22:15:00,45.7,25.0,30.00,WNW,302,10.0,10.0,44,0.00,,,0.00,LWC V2.11 B50,2013-02-07 05:15:00,
2013-02-06 22:20:00,45.6,25.0,30.00,West,274,3.0,9.0,44,0.00,,,0.00,LWC V2.11 B50,2013-02-07 05:20:00,
2013-02-06 22:25:00,45.3,24.7,30.00,NW,306,5.0,11.0,44,0.00,,,0.00,LWC V2.11 B50,2013-02-07 05:25:00,
2013-02-06 22:30:00,45.1,25.0,30.01,NW,319,7.0,10.0,45,0.00,,,0.00,LWC V2.11 B50,2013-02-07 05:30:00,
2013-02-06 22:35:00,44.9,24.9,30.01,WNW,283,5.0,8.0,45,0.00,,,0.00,LWC V2.11 B50,2013-02-07 05:35:00,
2013-02-06 22:40:00,44.8,25.3,30.01,NW,318,6.0,6.0,46,0.00,,,0.00,LWC V2.11 B50,2013-02-07 05:40:00,
2013-02-06 22:45:00,44.5,25.0,30.01,NW,313,0.0,3.0,46,0.00,,,0.00,LWC V2.11 B50,2013-02-07 05:45:00,
2013-02-06 22:50:00,44.2,25.3,30.01,WNW,302,0.0,2.0,47,0.00,,,0.00,LWC V2.11 B50,2013-02-07 05:50:00,
2013-02-06 22:55:00,44.0,25.1,30.01,West,281,5.0,5.0,47,0.00,,,0.00,LWC V2.11 B50,2013-02-07 05:55:00,
2013-02-06 23:00:00,44.0,25.1,30.01,WNW,300,4.0,9.0,47,0.00,,,0.00,LWC V2.11 B50,2013-02-07 06:00:00,
2013-02-06 23:05:00,44.4,25.4,30.01,NW,314,1.0,11.0,47,0.00,,,0.00,LWC V2.11 B50,2013-02-07 06:05:00,
2013-02-06 23:10:00,44.6,25.1,30.01,NW,306,5.0,10.0,46,0.00,,,0.00,LWC V2.11 B50,2013-02-07 06:10:00,
2013-02-06 23:15:00,44.5,25.0,30.01,NW,305,1.0,11.0,46,0.00,,,0.00,LWC V2.11 B50,2013-02-07 06:15:00,
2013-02-06 23:20:00,44.3,25.4,30.02,NW,309,3.0,5.0,47,0.00,,,0.00,LWC V2.11 B50,2013-02-07 06:20:00,
2013-02-06 23:25:00,43.9,25.0,30.02,NNW,340,1.0,4.0,47,0.00,,,0.00,LWC V2.11 B50,2013-02-07 06:25:00,
2013-02-06 23:30:00,43.5,25.1,30.02,NNE,27,3.0,3.0,48,0.00,,,0.00,LWC V2.11 B50,2013-02-07 06:30:00,
2013-02-06 23:35:00,43.3,24.9,30.02,North,5,0.0,3.0,48,0.00,,,0.00,LWC V2.11 B50,2013-02-07 06:35:00,
2013-02-06 23:40:00,43.0,24.7,30.03,NNW,329,0.0,1.0,48,0.00,,,0.00,LWC V2.11 B50,2013-02-07 06:40:00,
2013-02-06 23:45:00,42.5,24.7,30.03,NNW,329,0.0,0.0,49,0.00,,,0.00,LWC V2.11 B50,2013-02-07 06:45:00,
2013-02-06 23:50:00,42.1,24.8,30.03,NNW,329,0.0,0.0,50,0.00,,,0.00,LWC V2.11 B50,2013-02-07 06:50:00,
2013-02-06 23:55:00,41.7,24.4,30.03,NNW,329,0.0,0.0,50,0.00,,,0.00,LWC V2.11 B50,2013-02-07 06:55:00,